Shelton, WA
on Tuesday, December 18, 2012

Tuesday
Previous Day Next Day
Daily Summary
 ActualAverage (KOLM)Record (KOLM)
Temperature
Mean Temperature °F / °C 38°F / 3°C  
Max Temperature 34°F / 1°C 44°F / 7°C 56°F / 13°C (2004)
Min Temperature 30°F / -1°C 32°F / 0°C 13°F / -10°C (2005)
Degree Days
Heating Degree Days 33 27  
Month to date heating degree days 475  
Since 1 July heating degree days 1920  
Cooling Degree Days 0 0  
Month to date cooling degree days 0  
Year to date cooling degree days 106  
Moisture
Dew Point 32°F / 0°C   
Average Humidity 98    
Maximum Humidity 100    
Minimum Humidity 92    
Precipitation
Precipitation 0.23 in / 5.84 cm 0.21 in / 5.33 cm 1.11 in / 2.82 cm (1960)
Month to date precipitation 4.49  
Year to date precipitation 47.03  
Wind
Wind Speed 2 mph / 3 km/h   
Max Wind Speed 7 mph / 11 km/h   
Max Gust Speed mph / km/h   
Visibility 9 miles / 14 kilometers   
Events Snow   

Key: T is trace of precipitation, MM is missing value
Source: NWS Daily Summary
Time(PST)TemperatureDew PointHumidity Pressure Visibility Wind DirectionWind SpeedGust SpeedPrecipitationEvents Conditions
12:19 AM 33.8°F / 1.0°C 32.0°F / 0.0°C 93% 29.87 in / 1011.4 hPa 8.0 miles / 12.9 kilometers Calm Calm - 0.01 in / 0.3 cm Snow Light Snow
12:34 AM 33.8°F / 1.0°C 32.0°F / 0.0°C 93% 29.87 in / 1011.4 hPa 5.0 miles / 8.0 kilometers Calm Calm - 0.04 in / 1.0 cm Snow Light Snow
12:51 AM 33.8°F / 1.0°C 32.0°F / 0.0°C 93% 29.86 in / 1011.1 hPa 9.0 miles / 14.5 kilometers East 3.5 mph / 5.6 km/h - 0.04 in / 1.0 cm Snow Light Snow
12:53 AM 33.1°F / 0.6°C 32.0°F / 0.0°C 96% 29.88 in / 1011.6 hPa 9.0 miles / 14.5 kilometers East 3.5 mph / 5.6 km/h - 0.04 in / 1.0 cm Snow Light Snow
1:53 AM 32.0°F / 0.0°C 32.0°F / 0.0°C 100% 29.88 in / 1011.6 hPa 8.0 miles / 12.9 kilometers SSE 5.8 mph / 9.3 km/h - 0.08 in / 2.0 cm Snow Light Snow
2:01 AM 32.0°F / 0.0°C 32.0°F / 0.0°C 100% 29.86 in / 1011.1 hPa 6.0 miles / 9.7 kilometers SSE 6.9 mph / 11.1 km/h - 0.00 in / 0.0 cm Snow Light Snow
2:11 AM 32.0°F / 0.0°C 32.0°F / 0.0°C 100% 29.86 in / 1011.1 hPa 9.0 miles / 14.5 kilometers SE 4.6 mph / 7.4 km/h - 0.01 in / 0.3 cm Snow Light Snow
2:27 AM 33.8°F / 1.0°C 32.0°F / 0.0°C 93% 29.87 in / 1011.4 hPa 7.0 miles / 11.3 kilometers SE 6.9 mph / 11.1 km/h - 0.01 in / 0.3 cm Snow Light Snow
2:38 AM 33.8°F / 1.0°C 32.0°F / 0.0°C 93% 29.87 in / 1011.4 hPa 5.0 miles / 8.0 kilometers Calm Calm - 0.03 in / 0.8 cm Snow Light Snow
2:53 AM 33.1°F / 0.6°C 32.0°F / 0.0°C 96% 29.88 in / 1011.8 hPa 6.0 miles / 9.7 kilometers South 3.5 mph / 5.6 km/h - 0.05 in / 1.3 cm Snow Light Snow
3:17 AM 33.8°F / 1.0°C 32.0°F / 0.0°C 93% 29.86 in / 1011.1 hPa 7.0 miles / 11.3 kilometers SSE 5.8 mph / 9.3 km/h - 0.02 in / 0.5 cm Snow Light Snow
3:53 AM 32.0°F / 0.0°C 32.0°F / 0.0°C 100% 29.87 in / 1011.5 hPa 9.0 miles / 14.5 kilometers SE 4.6 mph / 7.4 km/h - 0.03 in / 0.8 cm Snow Light Snow
4:07 AM 32.0°F / 0.0°C 32.0°F / 0.0°C 100% 29.85 in / 1010.7 hPa 9.0 miles / 14.5 kilometers SE 3.5 mph / 5.6 km/h - 0.00 in / 0.0 cm Snow Light Snow
4:45 AM 33.8°F / 1.0°C 32.0°F / 0.0°C 93% 29.86 in / 1011.1 hPa 10.0 miles / 16.1 kilometers Calm Calm - 0.00 in / 0.0 cm   Overcast
4:53 AM 32.0°F / 0.0°C 32.0°F / 0.0°C 100% 29.88 in / 1011.8 hPa 10.0 miles / 16.1 kilometers Calm Calm - 0.00 in / 0.0 cm   Mostly Cloudy
5:02 AM 32.0°F / 0.0°C 32.0°F / 0.0°C 100% 29.86 in / 1011.1 hPa 10.0 miles / 16.1 kilometers South 3.5 mph / 5.6 km/h - N/A   Mostly Cloudy
5:17 AM 32.0°F / 0.0°C 32.0°F / 0.0°C 100% 29.87 in / 1011.4 hPa 10.0 miles / 16.1 kilometers Calm Calm - N/A   Overcast
5:38 AM 32.0°F / 0.0°C 32.0°F / 0.0°C 100% 29.87 in / 1011.4 hPa 10.0 miles / 16.1 kilometers Calm Calm - N/A   Overcast
5:53 AM 32.0°F / 0.0°C 32.0°F / 0.0°C 100% 29.89 in / 1012.1 hPa 10.0 miles / 16.1 kilometers Calm Calm - N/A   Overcast
6:27 AM 30.2°F / -1.0°C 30.2°F / -1.0°C 100% 29.88 in / 1011.7 hPa 6.0 miles / 9.7 kilometers Calm Calm - N/A   Partly Cloudy
6:53 AM 30.9°F / -0.6°C 30.0°F / -1.1°C 96% 29.90 in / 1012.5 hPa 5.0 miles / 8.0 kilometers Calm Calm - N/A   Partly Cloudy
7:19 AM 30.2°F / -1.0°C 30.2°F / -1.0°C 100% 29.89 in / 1012.1 hPa 8.0 miles / 12.9 kilometers Calm Calm - N/A   Mostly Cloudy
7:53 AM 30.9°F / -0.6°C 30.9°F / -0.6°C 100% 29.92 in / 1013.1 hPa 9.0 miles / 14.5 kilometers Calm Calm - 0.00 in / 0.0 cm Snow Light Snow
8:22 AM 32.0°F / 0.0°C 32.0°F / 0.0°C 100% 29.90 in / 1012.4 hPa 9.0 miles / 14.5 kilometers Calm Calm - 0.01 in / 0.3 cm Snow Light Snow
8:53 AM 30.0°F / -1.1°C 30.0°F / -1.1°C 100% 29.93 in / 1013.4 hPa 10.0 miles / 16.1 kilometers WSW 3.5 mph / 5.6 km/h - 0.01 in / 0.3 cm   Mostly Cloudy
9:18 AM 30.2°F / -1.0°C 30.2°F / -1.0°C 100% 29.91 in / 1012.8 hPa 10.0 miles / 16.1 kilometers Calm Calm - N/A   Mostly Cloudy
9:21 AM 30.2°F / -1.0°C 30.2°F / -1.0°C 100% 29.91 in / 1012.8 hPa 7.0 miles / 11.3 kilometers Calm Calm - N/A   Mostly Cloudy
9:53 AM 32.0°F / 0.0°C 30.9°F / -0.6°C 96% 29.95 in / 1014.0 hPa 10.0 miles / 16.1 kilometers WSW 5.8 mph / 9.3 km/h - N/A   Mostly Cloudy
10:03 AM 32.0°F / 0.0°C 32.0°F / 0.0°C 100% 29.93 in / 1013.4 hPa 10.0 miles / 16.1 kilometers WSW 4.6 mph / 7.4 km/h - N/A   Overcast
10:37 AM 32.0°F / 0.0°C 30.2°F / -1.0°C 93% 29.94 in / 1013.8 hPa 10.0 miles / 16.1 kilometers Calm Calm - 0.00 in / 0.0 cm   Overcast
10:51 AM 32.0°F / 0.0°C 32.0°F / 0.0°C 100% 29.93 in / 1013.4 hPa 10.0 miles / 16.1 kilometers Calm Calm - 0.00 in / 0.0 cm   Overcast
10:53 AM 32.0°F / 0.0°C 32.0°F / 0.0°C 100% 29.95 in / 1014.2 hPa 10.0 miles / 16.1 kilometers Calm Calm - 0.00 in / 0.0 cm   Overcast
11:10 AM 32.0°F / 0.0°C 32.0°F / 0.0°C 100% 29.94 in / 1013.8 hPa 10.0 miles / 16.1 kilometers South 3.5 mph / 5.6 km/h - N/A   Overcast
11:17 AM 32.0°F / 0.0°C 32.0°F / 0.0°C 100% 29.94 in / 1013.8 hPa 10.0 miles / 16.1 kilometers South 4.6 mph / 7.4 km/h - N/A   Overcast
11:24 AM 32.0°F / 0.0°C 32.0°F / 0.0°C 100% 29.94 in / 1013.8 hPa 9.0 miles / 14.5 kilometers SSW 5.8 mph / 9.3 km/h - 0.00 in / 0.0 cm Snow Light Snow
11:53 AM 33.1°F / 0.6°C 33.1°F / 0.6°C 100% 29.96 in / 1014.3 hPa 9.0 miles / 14.5 kilometers South 4.6 mph / 7.4 km/h - 0.00 in / 0.0 cm   Overcast
12:06 PM 33.8°F / 1.0°C 33.8°F / 1.0°C 100% 29.94 in / 1013.8 hPa 9.0 miles / 14.5 kilometers SSE 3.5 mph / 5.6 km/h - 0.01 in / 0.3 cm Snow Light Snow
12:31 PM 33.8°F / 1.0°C 33.8°F / 1.0°C 100% 29.94 in / 1013.8 hPa 10.0 miles / 16.1 kilometers South 3.5 mph / 5.6 km/h - 0.01 in / 0.3 cm   Overcast
12:53 PM 33.1°F / 0.6°C 33.1°F / 0.6°C 100% 29.96 in / 1014.3 hPa 9.0 miles / 14.5 kilometers Calm Calm - 0.01 in / 0.3 cm Snow Light Snow
1:53 PM 34.0°F / 1.1°C 32.0°F / 0.0°C 92% 29.95 in / 1014.2 hPa 10.0 miles / 16.1 kilometers Calm Calm - 0.01 in / 0.3 cm   Overcast
2:53 PM 34.0°F / 1.1°C 33.1°F / 0.6°C 96% 29.96 in / 1014.4 hPa 10.0 miles / 16.1 kilometers SW 6.9 mph / 11.1 km/h - N/A   Mostly Cloudy
3:53 PM 34.0°F / 1.1°C 33.1°F / 0.6°C 96% 29.97 in / 1014.7 hPa 10.0 miles / 16.1 kilometers SW 3.5 mph / 5.6 km/h - N/A   Overcast
4:53 PM 33.1°F / 0.6°C 33.1°F / 0.6°C 100% 29.97 in / 1014.9 hPa 10.0 miles / 16.1 kilometers SSW 3.5 mph / 5.6 km/h - N/A   Overcast
5:53 PM 34.0°F / 1.1°C 34.0°F / 1.1°C 100% 29.98 in / 1015.1 hPa 10.0 miles / 16.1 kilometers Calm Calm - N/A   Overcast
6:21 PM 33.8°F / 1.0°C 33.8°F / 1.0°C 100% 29.96 in / 1014.4 hPa 10.0 miles / 16.1 kilometers Calm Calm - N/A   Overcast
6:53 PM 33.1°F / 0.6°C 32.0°F / 0.0°C 96% 29.98 in / 1015.1 hPa 10.0 miles / 16.1 kilometers Calm Calm - N/A   Mostly Cloudy
7:02 PM 32.0°F / 0.0°C 32.0°F / 0.0°C 100% 29.96 in / 1014.4 hPa 3.0 miles / 4.8 kilometers Calm Calm - N/A   Mostly Cloudy
7:53 PM 32.0°F / 0.0°C 32.0°F / 0.0°C 100% 29.98 in / 1015.0 hPa 10.0 miles / 16.1 kilometers Calm Calm - N/A   Overcast
8:15 PM 32.0°F / 0.0°C 32.0°F / 0.0°C 100% 29.96 in / 1014.4 hPa 10.0 miles / 16.1 kilometers Calm Calm - N/A   Overcast
8:35 PM 32.0°F / 0.0°C 32.0°F / 0.0°C 100% 29.95 in / 1014.1 hPa 10.0 miles / 16.1 kilometers Calm Calm - N/A   Overcast
8:53 PM 32.0°F / 0.0°C 32.0°F / 0.0°C 100% 29.98 in / 1015.0 hPa 10.0 miles / 16.1 kilometers Calm Calm - N/A   Mostly Cloudy
9:06 PM 32.0°F / 0.0°C 32.0°F / 0.0°C 100% 29.95 in / 1014.1 hPa 10.0 miles / 16.1 kilometers Calm Calm - N/A   Overcast
9:16 PM 32.0°F / 0.0°C 32.0°F / 0.0°C 100% 29.95 in / 1014.1 hPa 6.0 miles / 9.7 kilometers Calm Calm - N/A   Overcast
9:20 PM 32.0°F / 0.0°C 32.0°F / 0.0°C 100% 29.95 in / 1014.1 hPa 4.0 miles / 6.4 kilometers Calm Calm - N/A   Overcast
9:53 PM 32.0°F / 0.0°C 32.0°F / 0.0°C 100% 29.97 in / 1014.8 hPa 10.0 miles / 16.1 kilometers Calm Calm - N/A   Overcast
10:14 PM 32.0°F / 0.0°C 32.0°F / 0.0°C 100% 29.95 in / 1014.1 hPa 7.0 miles / 11.3 kilometers Calm Calm - N/A   Overcast
10:53 PM 32.0°F / 0.0°C 32.0°F / 0.0°C 100% 29.96 in / 1014.5 hPa 10.0 miles / 16.1 kilometers Calm Calm - N/A   Mostly Cloudy
11:53 PM 33.1°F / 0.6°C 32.0°F / 0.0°C 96% 29.95 in / 1014.1 hPa 10.0 miles / 16.1 kilometers SSE 4.6 mph / 7.4 km/h - N/A   Overcast
Moon Phase
Dec. 18 Dec. 20 Dec. 28 Jan. 04 Jan. 11
Sunrise:07:55 AM (PST) Moon Rise:11:15 AM (PST)12/18
Sunset:04:23 PM (PST) Moon Set:11:20 PM (PST)12/18

Copyright © 2014 The Weather Underground, Inc.